752  
ASUS42 KKEY 302310  
RWRKEY  
 
FLORIDA REGIONAL WEATHER ROUNDUP FOR THE FLORIDA KEYS  
NATIONAL WEATHER SERVICE KEY WEST FLORIDA  
700 PM EDT FRI SEP 30 2016  
   
..SOUTH FLORIDA AND THE KEYS
 
 
 
CITY SKY/WX TMP DP RH WIND PRES REMARKS
 
FORT MYERS PTCLDY 85 72 65 W3 29.97R HX 91  
SW REGIONAL AP PTCLDY 85 72 65 W5 29.98R HX 91  
NAPLES PTCLDY 86 74 67 W5 29.98R HX 94  
MIAMI TSTM 78 70 76 VRB3 30.00F  
WEST KENDALL CLOUDY 77 69 76 NE3 29.99S  
HOMESTEAD CLOUDY 79 72 78 E8 30.00R  
MARATHON CLOUDY 78 72 81 SE6 29.98R THUNDER  
BOCA CHICA NAS CLOUDY 82 72 71 NE5 29.99R  
KEY WEST INTL PTCLDY 83 74 74 N8 29.99R  
   
..INTERNATIONAL WEATHER
 
 
 
CITY SKY/WX TMP DP RH WIND PRES REMARKS
 
NASSAU BAHAMAS PTCLDY 84 77 79 NE7 29.98S HX 94  
CANCUN MEXICO MOCLDY 82 77 83 N2 29.94S HX 91  
COZUMEL MEXICO MOCLDY 84 77 79 MISG 29.93S HX 94  
 
ADJACENT COASTAL WATERS...  
 
STATION/POSITION TIME SKY/WX TEMP WIND PRES WAVE
 
AIR SEA DIR/SP/G HT/PER  
(UTC) (F) (DEG/KT/KT) (MB) (FT/S)  
PULASKI SHOAL LI 2300 85 70/ 5/ 6 1015.2R  
SAND KEY 2250 81 140/ 18/ 26 1015.9R  
LONG KEY 2300 85 88 80/ 6/ 7 1015.4R  
FOWEY ROCKS 2300 81 85 320/ 11/ 12 1016.7R  
 

 
 
 
CLICK HERE TO GO TO PREVIOUS BULLETINS.

The Nexlab FL Page Main Text Page